sat.trackr.live / text

‹ back to catalog

STARLINK-3506

NORAD 51751 · 2022-016AP

PAYLOAD ACTIVE UNKNOWN

§ Identity

Operator
Country
US
Launch date
2022-02-21
Launch site
AFETR
Launch vehicle
Mass (kg)
RCS (m²)

Purposes: comms

External: N2YO · Heavens-Above · Gunter

§ Orbital elements

Epoch: 2026-05-25T00:30:52.941312Z

Period
95.44 min
Inclination
53.2112°
Eccentricity
0.0000962
Mean motion
15.08835052 rev/d
Perigee alt
539.1 km
Apogee alt
540.4 km
Semi-major
6,917.9 km
B*
7.0148e-5
RAAN
326.4616°
Arg perigee
92.4353°
Mean anomaly
267.6749°
Rev number
23,522

§ Raw data

STARLINK-35061 51751U 22016AP  26145.02144608  .00000829  00000+0  70148-4 0  99952 51751  53.2112 326.4616 0000962  92.4353 267.6749 15.08835052235228

JSON: /api/v1/satellites/51751 · /tle

For live sub-satellite position, see the globe view (requires WebGL).

§ Visibility from observer

Set your observer location to see the next 7 days of passes ≥ 10°. The values pass through the URL so the page stays shareable.

No JS? Fill the form by hand. The geolocation button needs JavaScript.